Regional Weather Roundup
Issued by NWS Jackson, KY

Home | Current Version | Previous Version | Graphics & Text | Print | Product List | Glossary On
Versions: 1 2 3 4 5 6 7 8 9 10 11 12 13 14 15 16 17 18 19 20 21 22 23 24 25 26 27 28 29 30 31 32 33 34 35 36 37 38 39 40 41 42 43 44 45 46 47 48 49 50
000
ASUS43 KJKL 311610
RWRJKL

EAST KENTUCKY HOURLY WEATHER ROUNDUP
NATIONAL WEATHER SERVICE JACKSON KY
1100 AM EST SAT JAN 31 2015

NOTE: "FAIR" INDICATES FEW OR NO CLOUDS BELOW 12,000 FEET WITH
NO SIGNIFICANT WEATHER AND/OR OBSTRUCTIONS TO VISIBILITY.

* THESE REPORTS ARE NOT UNDER NWS QUALITY CONTROL AND MAY NOT
  REPORT WEATHER SUCH AS PRECIPITATION AND FOG.

KYZ079-080-083-085-087-088-110-112-115-119-120-311700
...EASTERN KENTUCKY...

CITY           SKY/WX    TMP DP  RH WIND       PRES   REMARKS
JACKSON        SUNNY     31  18  58 VRB3      30.38S
LONDON         SUNNY     33  15  47 S7        30.39S WCI  27
SOMERSET*      SUNNY     32  21  64 CALM      30.42S
MONTICELLO*    MOSUNNY   36  19  50 SE5       30.43R WCI  32
MIDDLESBORO*   SUNNY     31  19  62 CALM      30.41F
HARLAN APT*    SUNNY     32  19  59 CALM      30.38S
BLACK MTN*       N/A     27   1  33 CALM        N/A
PIKEVILLE APT* SUNNY     28  18  64 S3        30.38R
BIG SANDY*     SUNNY     29  17  59 SW5       30.40R WCI  24
MOREHEAD APT*  SUNNY     30  18  59 SW5       30.42S WCI  25
$$

KYZ035-036-041-042-044-050-067-078-099-311700
...CENTRAL KENTUCKY...

CITY           SKY/WX    TMP DP  RH WIND       PRES   REMARKS
MT STERLING*   SUNNY     32  21  64 W5        30.41R WCI  27
DANVILLE*      SUNNY     32  21  64 S6        30.40S WCI  26
RICHMOND*      SUNNY     34  18  51 S5        30.40S WCI  30
LEXINGTON      SUNNY     33  19  56 S7        30.39S WCI  27
FRANKFORT      MOSUNNY   33  20  58 SW7       30.39S WCI  27
$$

KYZ091>093-OHZ055-061-077-WVZ005-015-034-035-042-311700
...SOUTHERN OHIO/WEST VIRGINIA...

CITY           SKY/WX    TMP DP  RH WIND       PRES   REMARKS
COVINGTON      PTSUNNY   31  18  58 SW8       30.37S WCI  23
COLUMBUS       MOSUNNY   24  15  68 S8        30.37F WCI  15
DAYTON         MOSUNNY   29  19  66 SW16      30.35S WCI  17
WILMINGTON     CLOUDY    28  18  66 SW13      30.36S WCI  17
HUNTINGTON     SUNNY     28  18  66 SW5       30.41S WCI  23
CHARLESTON     MOSUNNY   26  15  63 SW9       30.41S WCI  17
PINEVILLE*     SUNNY     29  19  66 MISG      30.42S
BECKLEY        SUNNY     22  11  62 W8        30.30S WCI  12
BLUEFIELD      SUNNY     25  10  53 W9        30.29R WCI  15
$$

VAZ002-007-008-TNZ017-027-036-066-071-311700
...SOUTHWEST VIRGINIA/EAST TENNESSEE...

CITY           SKY/WX    TMP DP  RH WIND       PRES   REMARKS
WISE*          SUNNY     32   5  32 SW3       30.33R
JONESVILLE*    SUNNY     32  16  51 CALM      30.42S
ABINGDON*      MOSUNNY   32  14  47 W5        30.35S WCI  27
BRISTOL        PTSUNNY   32  16  51 CALM      30.40R
KNOXVILLE      CLOUDY    32  21  64 NE6       30.40S WCI  26
OAK RIDGE      PTSUNNY   34  20  56 CALM      30.43R
CROSSVILLE     CLOUDY    31  20  63 CALM      30.36R
NASHVILLE      PTSUNNY   37  22  54 S5        30.42R WCI  33
$$

...KEY TO REMARKS...
VSB - VISIBILITY IN MILES
WCI - WIND CHILL INDEX
HX  - HEAT INDEX

$$



USA.gov is the U.S. government's official web portal to all federal, state and local government web resources and services.